Location: Ravensburg
(47.7866°N, 9.6124°E)
Time: 02:33:28
(UTC+02:00)

Gurwin Techsat 1B - Pass Details

Date: 20 March 2026
Orbit: 809 x 812 km, 99.0° (Epoch: 14 April)

Event Time Altitude Azimuth Distance (km) Brightness Sun altitude
Rises 04:46:14 0° 23° (NNE) 3,340 12.5 -17.1°
Reaches altitude 10° 04:48:50 10° 33° (NNE) 2,404 11.8 -16.7°
Maximum altitude 04:53:33 32° 96° (E) 1,370 10.5 -15.9°
Drops below altitude 10° 04:58:14 10° 158° (SSE) 2,388 11.1 -15.2°
Sets 05:00:48 0° 169° (SSE) 3,314 11.7 -14.8°
